Flag for Liechtenstein

Past Weather in Vaduz, Liechtenstein — Yesterday and Last 2 Weeks

Now
54 °F

Fog.


Feels Like: 54 °F
Forecast: 78 / 52 °F
Wind: 2 mph from Northeast

Location: Vaduz

Current Time: Jul 7, 2020 at 5:45:38 am

Latest Report: Jul 7, 2020 at 5:00 am


Visibility: 6 mi

Pressure: 30.19 "Hg

Humidity: 69%

Dew Point: 44 °F

Location of VaduzLocation

Past Weather in Vaduz — Graph

°F

Vaduz Temperature Yesterday

Maximum temperature yesterday: 77 °F (at 1:00 pm)
Minimum temperature yesterday: 64 °F (at 11:00 pm)
Average temperature yesterday: 69 °F

High & Low Weather Summary for the Past Weeks

 TemperatureHumidityPressure
High83 °F (Jul 5, 5:00 pm)95% (Jun 29, 5:00 am)30.28 "Hg (Jun 29, 5:00 am)
Low55 °F (Jul 4, 2:00 am)33% (Jun 24, 4:00 pm)29.80 "Hg (Jul 1, 5:00 pm)
Average67 °F70%30.03 "Hg
* Reported Jun 22 4:00 am — Jul 7 4:00 am, Vaduz. Weather by CustomWeather, © 2020

Note: Actual official high and low records may vary slightly from our data, if they occured in-between our weather recording intervals... More about our weather records

Vaduz Weather History for the Previous 24 Hours

Scroll right to see more
 ConditionsComfort  
Time TempWeatherWind HumidityBarometerVisibility
4:00 am
Tue, Jul 7
58 °FRefreshingly cool.2 mph58%30.17 "HgN/A
3:00 am60 °FRefreshingly cool.5 mph52%30.16 "HgN/A
2:00 am62 °FFog.6 mph45%30.16 "Hg6 mi
1:00 am62 °FRefreshingly cool.8 mph45%30.16 "HgN/A
12:00 am63 °FMild.9 mph41%30.16 "HgN/A
11:00 pm
Mon, Jul 6
64 °FFog.3 mph46%30.14 "Hg5 mi
10:00 pm66 °FMild.6 mph42%30.11 "HgN/A
9:00 pm66 °FMild.5 mph41%30.09 "HgN/A
8:00 pm68 °FPartly sunny.5 mph35%30.08 "Hg8 mi
7:00 pm69 °FMild.6 mph33%30.05 "HgN/A
6:00 pm68 °FMild.10 mph43%30.03 "HgN/A
5:00 pm67 °FPartly sunny.18 mph47%30.02 "Hg9 mi
4:00 pm69 °FMild.13 mph60%29.99 "HgN/A
3:00 pm72 °FMild.8 mph61%29.97 "HgN/A
2:00 pm72 °FPartly sunny.10 mph55%29.94 "Hg11 mi
1:00 pm77 °FMild.7 mph53%29.90 "HgN/A
12:00 pm75 °FMild.5 mph52%29.92 "HgN/A
11:00 am76 °FPartly sunny.5 mph54%29.93 "Hg9 mi
10:00 am72 °FMild.1 mph68%29.95 "HgN/A
9:00 am71 °FMild.3 mph69%29.96 "HgN/A
8:00 am67 °FPassing clouds.3 mph77%29.98 "Hg16 mi
7:00 am66 °FMild.2 mph81%29.98 "HgN/A
6:00 am66 °FMild.5 mph80%29.99 "HgN/A
5:00 am65 °FFog.2 mph84%30.00 "Hg6 mi
Weather by CustomWeather, © 2020

See weather overview